GLOBAL-2 (43812 NORAD) Tracking and Keplerian Element Data

This shows tracking and keplerian element data for the satellite.

Feedback or suggestion? Click here.




ElementValue
Catalog43812
NameGLOBAL-2
Epoch Orbit33685
Epoch Day34.70823327
Epoch Year2025
RAAN86.3078
Inclination97.4245
Eccentricity0.0007839
Argument of Perigee67.3534
Mean Anonmoly292.8521
Mean Motion15.0420558
Decay Rate5.325E-05
L11 43812U 18099BG 25034.70823327 .00005325 00000+0 38723-3 0 9991
L22 43812 97.4245 86.3078 0007839 67.3534 292.8521 15.04205580336852



Live tracking and technical data element details for GLOBAL-2 (NORAD 43812). GLOBAL-2 can be tracked NOW for your location showing map with azimuth and elevation plus other details from your city location.







IsCatalogInMostPopularTable: catalog: 43812, numindb: 340
Update: records affected: 1



GetName: 43812 GLOBAL-2

Hit Count: updated at: Thu, 22 May 2025 04:24:38 GMT